Location: Kott?ru
(16.6209°N, 80.6208°E)
Time: 19:36:36
(UTC+00:00)

Meteor PRIRODA - Pass Details

Date: 18 September 2020
Orbit: 489 x 511 km, 97.6° (Epoch: 27 October)

Event Time Altitude Azimuth Distance (km) Brightness Sun altitude
Rises 23:37:03 0° 10° (N) 2,571 7.4 -12.6°
Reaches altitude 10° 23:39:08 10° 9° (N) 1,685 6.5 -12.1°
Maximum altitude 23:42:45 83° 282° (WNW) 498 3.5 -11.2°
Drops below altitude 10° 23:46:21 10° 194° (SSW) 1,673 6.1 -10.4°
Sets 23:48:24 0° 193° (SSW) 2,551 7.0 -9.9°
